This is the latest recevied weather packets stored in our database for station/object IT9CNT. If no packets are shown the sender has not sent any weather packets the latest 10 day(s).
| Time | Temp. | Humidity | Pressure | Rain* | Wind** | Luminosity | Snow |
|---|---|---|---|---|---|---|---|
| 1778249404 | 22.22° C | 80% | 1009.5 hPa | 0 mm | - | - | - |
| 1778249344 | 22.22° C | 80% | 1009.5 hPa | 0 mm | - | - | - |
| 1778249284 | 21.67° C | 80% | 1009.6 hPa | 0 mm | - | - | - |
| 1778249224 | 21.67° C | 80% | 1009.4 hPa | 0 mm | - | - | - |
| 1778249163 | 22.22° C | 79% | 1009.5 hPa | 0 mm | - | - | - |
| 1778249104 | 22.22° C | 80% | 1009.6 hPa | 0 mm | - | - | - |
| 1778249043 | 21.67° C | 80% | 1009.4 hPa | 0 mm | - | - | - |
| 1778248983 | 22.22° C | 79% | 1009.6 hPa | 0 mm | - | - | - |
| 1778248924 | 22.22° C | 79% | 1009.5 hPa | 0 mm | - | - | - |
| 1778248864 | 21.67° C | 80% | 1009.5 hPa | 0 mm | - | - | - |
| 1778248804 | 21.67° C | 80% | 1009.8 hPa | 0 mm | - | - | - |
| 1778248743 | 22.78° C | 80% | 1009.6 hPa | 0 mm | - | - | - |
| 1778248684 | 22.22° C | 80% | 1009.3 hPa | 0 mm | - | - | - |
| 1778248563 | 22.22° C | 79% | 1009.6 hPa | 0 mm | - | - | - |
| 1778248503 | 22.22° C | 79% | 1009.6 hPa | 0 mm | - | - | - |
| 1778248443 | 22.22° C | 80% | 1009.7 hPa | 0 mm | - | - | - |
| 1778248384 | 22.22° C | 80% | 1009.6 hPa | 0 mm | - | - | - |
| 1778248263 | 22.22° C | 80% | 1009.5 hPa | 0 mm | - | - | - |
| 1778248203 | 22.22° C | 80% | 1009.5 hPa | 0 mm | - | - | - |
| 1778248143 | 22.22° C | 80% | 1009.7 hPa | 0 mm | - | - | - |
| 1778248084 | 22.22° C | 79% | 1009.7 hPa | 0 mm | - | - | - |
| 1778248023 | 22.78° C | 79% | 1009.8 hPa | 0 mm | - | - | - |
| 1778247964 | 22.78° C | 78% | 1009.5 hPa | 0 mm | - | - | - |
| 1778247903 | 22.78° C | 78% | 1009.5 hPa | 0 mm | - | - | - |
| 1778247843 | 22.78° C | 79% | 1009.4 hPa | 0 mm | - | - | - |
* Rain latest hour (hover to see other rain measurements)
** Current wind speed in m/s (hover to see current wind gust speed)